EHI
0 0 0 0 0 0 0 0 0 0 0 0 0 0 0 0 0 0 0 0 0 0 0 0 0 0 0 0 0 0 0 0 0 0 0 0 0 0 0 0 0 0 0
0 0 0 0 0 0 0 0 0 0 0 0 0 0 0 0 0 0 0 0 0 0 0 0 0 0 0 0 0 0 0 0 0 0 0 0 0 0 0 0 0 0 0
0 0 0 0 0 0 0 0 0 0 0 0 0 0 0 0 0 0 0 0 0 0 0 0 0 0 0 0 0 0 0 0 0 0 0 0 0 0 0 0 0 0 0
0 0 0 0 0 0 0 0 0 0 0 0 0 0 0 0 0 0 0 0 0 0 0 0 0 0 0 0 0 0 0 0 0 0 0 0 0 0 0 0 0 0 0
0 0 0 0 0 0 0 0 0 0 0 0 0 0 0 0 0 0 0 0 0 0 0 0 0 0 0 0 0 0 0 0 0 0 0 0 0 0 0 0 0 0 0
0 0 0 0 0 0 0 0 0 0 0 0 0 0 0 0 0 0 0 0 0 0 0 0 0 0 0 0 0 0 0 0 0 0 0 0 0 0 0 0 0 0 0
0 0 0 0 0 0 0 0 0 0 0 0 0 0 0 0 0 0 0 0 0 0 0 0 0 0 0 0 0 0 0 0 0 0 0 0 0 0 0 0 0 0 0
0 0 0 0 0 0 0 0 0 0 0 0 0 0 0 0 0 0 0 0 0 0 0 0 0 0 0 0 0 0 0 0 0 0 0 0 0 0 0 0 0 0 0
1 0 0 0 0 0 0 0 0 0 0 0 0 0 0 0 0 0 0 0 0 0 0 0 0 0 0 0 0 0 0 0 0 0 0 0 0 0 0 0 0 0 0
1 0 0 0 0 0 0 0 0 0 0 0 0 0 0 0 0 0 0 0 0 0 0 0 0 0 0 0 0 0 0 0 0 0 0 0 0 0 0 0 0 0 0
1 0 0 0 0 0 0 0 0 0 0 0 0 0 0 0 0 0 0 0 0 0 0 0 0 0 0 0 0 0 0 0 0 0 0 0 0 0 0 0 0 0 0
1 0 0 0 0 0 0 0 0 0 0 0 0 0 0 0 0 0 0 0 0 0 0 0 0 0 0 0 0 0 0 0 0 0 0 0 0 0 0 0 0 0 0
1 1 0 0 0 0 0 0 0 0 0 0 0 0 0 0 0 0 0 0 0 0 0 0 0 0 0 0 0 0 0 0 0 0 0 0 0 0 0 0 0 0 0
1 1 1 1 1 0 0 0 0 0 0 0 0 0 0 0 0 0 0 0 0 0 0 0 0 0 0 0 0 0 0 0 0 0 0 0 0 0 0 0 0 0 0
0 0 0 0 0 0 0 0 0 0 0 0 0 0 0 0 0 0 0 0 0 0 0 0 0 0 0 0 0 0 0 0 0 0 0 0 0 0 0 0 0 0 0
0 0 0 0 0 0 0 0 0 0 0 0 0 0 0 0 0 0 0 0 0 0 0 0 0 0 0 0 0 0 0 0 0 0 0 0 0 0 0 0 0 0 0
0 0 0 0 0 0 0 0 0 0 0 0 0 0 0 0 0 0 0 0 0 0 0 0 0 0 0 0 0 0 0 0 0 0 0 0 0 0 0 0 0 0 0
0 0 0 0 0 0 0 0 0 0 0 0 0 0 0 0 0 0 0 0 0 0 0 0 0 0 0 0 0 0 0 0 0 0 0 0 0 0 0 0 0 0 0
0 0 0 0 0 0 0 0 0 0 0 0 0 0 0 0 0 0 0 0 0 0 0 0 0 0 0 0 0 0 0 0 0 0 0 0 0 0 0 0 0 0 0
0 0 0 0 0 0 0 0 0 0 0 0 0 0 0 0 0 0 0 0 0 0 0 0 0 0 0 0 0 0 0 0 0 0 0 0 0 0 0 0 0 0 0
0 0 0 0 0 0 0 0 0 0 0 0 0 0 0 0 0 0 0 0 0 0 0 0 0 0 0 0 0 0 0 0 0 0 0 0 0 0 0 0 0 0 0
0 0 0 0 0 0 0 0 0 0 0 0 0 0 0 0 0 0 0 0 0 0 0 0 0 0 0 0 0 0 0 0 0 0 0 0 0 0 0 0 0 0 0
0 0 0 0 0 0 0 0 0 0 0 0 0 0 0 0 0 0 0 0 0 0 0 0 0 0 0 0 0 0 0 0 0 0 0 0 0 0 0 0 0 0 0
0 0 0 0 0 0 0 0 0 0 0 0 0 0 0 0 0 0 0 0 0 0 0 0 0 0 0 0 0 0 0 0 0 0 0 0 0 0 0 0 0 0 0
0 0 0 0 0 0 0 0 0 0 0 0 0 0 0 0 0 0 0 0 0 0 0 0 0 0 0 0 0 0 0 0 0 0 0 0 0 0 0 0 0 0 0
0 0 0 0 0 0 0 0 0 0 0 0 0 0 0 0 0 0 0 0 0 0 0 0 0 0 0 0 0 0 0 0 0 0 0 0 0 0 0 0 0 0 0
Wind_Speed
4 4 4 4 4 3 4 4 4 3 3 3 3 1 1 1 1 2 4 8 8 7 7 6 6 6 6 5 5 4 4 4 3 2 2 1 1 1 1 2 3 4 4
4 4 3 3 3 2 3 3 3 2 2 2 1 1 2 2 3 3 3 6 9 9 9 9 8 8 8 7 7 7 6 6 6 5 4 4 3 2 2 1 1 1 2
4 3 3 3 3 3 3 2 2 1 1 1 1 2 2 2 2 3 3 4 5 9 11 11 10 10 9 9 8 8 8 8 8 7 7 6 6 5 5 4 3 2 2
5 4 3 3 3 3 2 2 1 1 1 1 2 3 2 2 3 4 3 3 4 5 8 12 11 11 10 10 10 9 9 9 10 10 9 8 8 8 8 7 6 5 5
6 5 3 3 3 3 2 2 2 2 2 2 2 2 2 3 4 4 4 4 4 4 4 8 11 10 9 10 10 10 10 10 10 11 11 11 10 10 10 9 9 8 7
5 5 3 3 3 3 3 2 3 2 2 2 2 3 3 4 4 4 5 4 3 4 4 4 5 7 9 9 10 10 11 10 9 10 11 12 12 12 11 11 11 10 9
5 4 3 3 3 3 3 4 3 4 3 2 1 3 4 6 6 5 4 3 3 3 3 3 3 3 3 8 9 10 10 10 10 10 11 11 12 12 13 13 13 12 12
4 4 4 3 3 3 4 4 3 2 2 3 2 2 3 3 4 4 3 3 2 1 2 2 2 1 1 1 2 6 7 9 10 11 11 11 11 12 13 13 13 14 13
4 4 4 3 3 3 3 4 4 4 3 3 3 3 3 3 2 1 1 2 2 1 1 1 1 1 1 1 0 2 3 6 9 10 10 10 10 11 12 12 12 11 12
4 4 4 3 3 3 3 3 3 3 3 3 3 4 4 2 1 2 2 1 1 1 1 1 1 1 1 1 1 2 2 4 6 8 9 9 9 8 9 10 10 9 7
3 3 3 3 3 3 3 3 3 3 3 4 3 2 3 3 3 3 4 2 1 1 1 1 1 1 1 1 1 2 3 4 5 7 7 8 7 7 7 7 7 6 6
3 3 3 3 2 2 2 2 2 3 3 4 3 3 3 3 3 4 5 4 3 2 1 1 1 1 1 2 3 5 4 4 4 5 6 6 6 6 6 5 3 2 3
2 3 3 2 2 2 2 2 2 2 3 3 3 3 3 3 2 2 3 3 3 2 1 1 1 1 2 2 2 4 4 4 4 4 5 4 4 3 3 3 2 1 1
3 3 2 2 2 1 1 1 1 2 2 3 3 2 2 2 1 2 2 2 3 2 2 2 1 2 2 2 3 3 2 4 4 4 4 5 5 5 4 4 3 3 2
2 2 2 2 1 1 1 2 2 2 2 2 2 2 1 1 1 1 1 2 3 3 3 2 2 1 1 2 3 2 2 3 3 4 4 5 5 5 4 4 3 3 3
2 2 2 2 1 1 1 1 1 1 2 1 1 1 1 1 0 0 1 1 2 3 2 1 2 1 1 2 3 2 2 4 4 4 4 4 4 4 3 3 2 2 2
2 2 2 2 1 1 1 1 1 1 2 1 1 1 1 1 1 0 0 1 1 1 2 1 1 1 1 1 1 1 2 1 2 4 4 4 3 3 2 2 2 2 2
3 2 2 2 1 1 1 1 1 1 1 1 1 1 1 1 1 0 0 1 1 1 2 2 1 1 1 1 1 1 1 1 1 3 4 3 3 2 2 2 2 2 2
3 3 2 2 2 2 2 2 2 2 2 2 2 1 1 1 1 0 1 0 0 0 1 2 2 1 1 1 1 1 1 1 1 1 2 3 3 3 3 3 3 3 3
3 3 3 2 3 2 2 2 2 2 3 3 3 2 2 2 1 1 1 1 0 1 1 2 2 1 1 1 1 0 1 1 1 1 2 3 4 4 4 4 3 2 3
3 3 3 2 2 2 2 2 2 3 3 3 3 3 3 4 4 2 2 1 1 1 1 1 1 1 1 1 1 0 0 1 1 1 2 2 2 2 2 3 3 3 3
3 3 2 2 2 2 3 3 3 2 3 3 3 3 3 3 4 4 4 4 3 2 2 1 1 1 1 1 1 1 1 1 2 2 2 3 2 2 2 1 3 3 4
3 3 2 2 2 3 3 3 4 2 2 2 2 2 2 2 3 2 3 5 5 5 3 2 2 1 1 1 2 1 0 0 2 2 1 2 2 2 2 2 4 5 5
3 2 2 2 2 3 4 4 4 2 2 2 2 2 2 2 2 2 2 2 2 2 2 2 2 1 2 2 2 2 1 0 2 2 1 1 2 2 3 3 5 5 5
2 2 2 2 2 3 4 4 4 1 2 1 1 1 2 2 3 3 2 1 1 1 2 3 3 2 1 1 1 2 1 1 1 2 0 0 1 2 3 2 3 3 4
3 3 2 2 3 3 5 5 4 1 2 1 1 1 2 2 3 3 2 1 1 0 1 1 1 1 1 0 0 2 2 1 1 2 1 1 1 2 3 3 2 2 3
Wind_Direction
159 158 162 165 179 178 165 195 222 203 192 210 219 201 160 220 187 160 156 176 180 193 206 214 216 215 213 213 211 207 203 198 197 197 189 177 148 75 57 47 42 42 42
160 154 156 160 182 165 167 196 224 187 194 218 232 211 219 224 215 198 174 187 195 201 212 220 226 227 227 226 223 220 217 215 216 217 218 219 223 230 236 256 321 357 14
154 149 161 163 180 177 175 196 226 178 212 200 248 260 250 242 230 217 203 190 195 208 214 222 228 232 234 235 234 231 226 222 221 223 226 229 230 232 237 242 252 268 289
158 155 169 176 182 175 178 189 197 189 221 214 242 253 243 232 240 244 234 211 194 193 210 221 229 233 236 239 241 241 236 229 226 225 226 229 232 233 235 239 243 250 259
163 161 177 187 188 177 181 190 195 200 219 227 241 252 255 247 238 236 240 236 216 195 185 205 216 225 232 239 245 248 245 238 230 228 229 230 231 234 237 238 240 243 249
168 164 172 191 188 172 183 191 199 218 228 231 249 255 250 248 240 230 229 229 223 205 192 186 196 219 224 233 243 251 254 251 241 234 233 233 234 235 238 240 240 241 244
165 164 170 185 184 179 189 197 194 212 223 226 258 281 266 244 235 226 215 213 219 207 187 186 179 185 206 223 239 250 257 260 254 247 241 239 238 239 240 241 241 240 242
168 171 173 181 185 185 196 204 197 196 210 194 190 240 290 297 260 224 192 191 206 192 171 170 159 173 162 163 227 245 257 261 263 259 253 249 245 243 243 244 246 244 241
176 173 181 180 185 186 197 204 198 191 210 219 201 198 220 250 307 305 208 182 182 167 161 129 126 100 100 116 137 260 270 269 268 268 264 260 255 250 248 247 246 246 238
175 177 183 189 193 193 203 212 205 201 200 219 226 226 225 216 233 290 300 254 173 162 162 126 110 99 72 68 40 12 328 298 282 280 277 274 271 268 260 254 251 241 234
170 167 178 189 201 201 206 210 209 211 208 212 214 216 236 247 224 227 256 256 254 227 180 152 118 85 68 67 37 15 2 331 301 294 290 287 284 285 283 273 256 242 235
165 167 179 189 199 201 202 206 220 224 223 226 224 212 205 211 213 219 238 237 232 216 180 100 92 82 67 63 48 29 21 359 329 314 307 304 300 303 307 308 278 239 237
169 181 180 190 198 204 207 205 212 236 232 230 228 228 229 232 213 218 238 247 241 209 170 130 83 66 63 67 44 25 29 16 355 335 329 340 349 349 344 344 358 13 298
157 154 168 179 181 184 206 211 215 227 232 232 236 236 241 244 232 217 226 236 252 236 198 183 83 62 57 67 37 40 45 36 18 8 9 17 28 36 39 36 27 15 359
108 116 136 140 153 177 197 195 210 223 221 221 221 217 223 247 245 240 233 219 227 248 235 179 142 78 63 70 38 39 58 45 34 33 34 35 41 43 42 35 27 18 5
108 125 133 138 144 167 187 195 206 211 197 207 204 192 207 215 225 247 240 241 223 231 232 138 118 104 79 72 43 39 53 51 40 38 37 35 36 41 36 22 11 8 351
110 107 106 103 113 163 182 185 200 183 182 175 166 166 175 139 159 193 206 211 225 216 223 138 98 104 107 92 33 30 45 46 32 31 26 20 23 29 18 9 16 15 4
91 91 92 107 118 92 65 118 129 116 143 159 159 150 148 120 121 98 152 178 200 206 183 184 140 126 106 103 68 39 27 40 41 26 16 12 8 359 350 339 329 322 318
94 90 88 95 87 73 63 64 84 94 95 91 88 100 101 115 120 103 108 110 252 126 121 143 136 116 107 113 59 8 6 1 347 355 355 353 338 330 322 313 306 301 297
99 95 88 82 77 70 69 70 82 91 91 81 72 73 69 87 108 131 113 83 60 79 91 109 118 123 123 125 110 63 329 325 318 343 356 340 327 320 310 306 304 299 297
101 100 95 89 85 79 79 88 98 107 107 98 84 78 72 75 72 75 83 76 79 101 108 114 126 113 135 130 198 180 1 322 315 25 3 325 316 308 302 295 291 278 285
113 108 105 102 97 94 103 111 112 109 119 123 120 108 100 83 82 76 76 75 81 107 132 135 150 166 188 171 126 101 75 45 306 332 7 308 292 282 275 253 269 285 293
123 117 116 114 110 112 124 124 120 117 125 127 130 126 117 109 90 80 74 67 60 60 77 133 147 179 163 149 122 98 100 203 239 261 356 294 301 291 283 289 298 294 294
136 137 132 132 129 133 139 137 131 111 112 119 124 130 131 125 113 102 89 71 58 42 50 65 106 100 98 103 132 158 181 262 287 276 175 256 297 300 309 310 294 286 290
145 147 144 152 151 151 154 153 147 128 133 137 126 122 127 143 160 140 114 102 70 33 63 82 90 94 92 98 115 97 88 60 310 294 331 215 304 321 308 300 295 290 301
159 156 160 172 171 170 176 177 173 160 161 164 158 169 179 175 180 169 142 148 163 189 93 52 30 8 12 171 123 147 164 175 222 276 304 48 342 0 322 304 310 313 306